Tracking 19575 objects as of 18-Feb-2019
HD Live streaming from Space Station
objects crossing your sky now

TRACE

Track TRACE now!
10-day predictions
TRACE is classified as:


NORAD ID: 25280
Int'l Code: 1998-020A
Perigee: 517.0 km
Apogee: 551.4 km
Inclination: 97.5 °
Period: 95.2 minutes
Semi major axis: 6905 km
RCS: 1.591 m2 (large)
Launch date: April 2, 1998
Source: United States (US)
Launch site: Pegasus launched from Western Range Air Space (WRAS)

Coordinates with SOHO; image the solar corona and transition region at high angular and temporal resolution.
aabbcc
Your satellite tracking list
Your tracking list is empty




NASA's NSSDC Master Catalog

Two Line Element Set (TLE):
1 25280U 98020A   19048.61963697 +.00000463 +00000-0 +29770-4 0  9997
2 25280 097.4809 243.1715 0024923 085.5861 274.8217 15.12987909142405
Source of the keplerian elements: AFSPC